Location: Asheville, NC
(35.6000°N, 82.5500°W)
Time: 20:47:18
(UTC-04:00)

KAITUO 1B - Pass Details

Date: 04 January 2018
Orbit: 499 x 520 km, 97.5° (Epoch: 22 June)

Event Time Altitude Azimuth Distance (km) Brightness Sun altitude
Rises 06:28:36 0° 17° (NNE) 2,631 ? -14.2°
Reaches altitude 10° 06:30:46 10° 23° (NNE) 1,736 ? -13.8°
Maximum altitude 06:34:24 49° 100° (E) 662 ? -13.1°
Drops below altitude 10° 06:37:58 10° 176° (S) 1,710 ? -12.4°
Sets 06:40:05 0° 181° (S) 2,585 ? -12.0°
